Regional Weather Roundup
Issued by NWS

Home | Current Version | Previous Version | Text Only | Print | Product List | Glossary On
Versions: 1 2 3 4 5 6 7 8 9 10 11 12 13 14 15 16 17 18 19 20 21 22 23 24 25 26 27
000
ASUS42 KKEY 212310
RWRKEY

FLORIDA REGIONAL WEATHER ROUNDUP FOR THE FLORIDA KEYS
NATIONAL WEATHER SERVICE KEY WEST FLORIDA
600 PM EST SAT JAN 21 2017

...SOUTH FLORIDA AND THE KEYS...

CITY           SKY/WX    TMP DP  RH WIND       PRES   REMARKS
FORT MYERS     CLEAR     75  64  68 S10       29.85R
SW REGIONAL AP CLEAR     76  62  62 S12       29.85R
NAPLES         CLEAR     75  62  64 S9        29.85R
MIAMI          PTCLDY    79  61  53 S10G21    29.88R
WEST KENDALL   CLEAR     76  61  59 S8        29.87F
HOMESTEAD      CLEAR     74  65  74 S6        29.87F
MARATHON       PTCLDY    79  67  66 SE5       29.87F
BOCA CHICA NAS PTCLDY    76  68  76 SE7       29.87S
KEY WEST INTL  NOT AVBL

...INTERNATIONAL WEATHER...

CITY           SKY/WX    TMP DP  RH WIND       PRES   REMARKS
NASSAU BAHAMAS PTCLDY    73  64  73 S2        29.94S
CANCUN MEXICO  PTCLDY    81  73  78 S14       29.77S
COZUMEL MEXICO PTCLDY    81  75  83 SE5       29.76R

ADJACENT COASTAL WATERS...

STATION/POSITION TIME  SKY/WX   TEMP    WIND        PRES    WAVE
                                AIR SEA DIR/SP/G            HT/PER
                 (UTC)          (F)     (DEG/KT/KT) (MB)    (FT/S)
PULASKI SHOAL LI 2300            76     130/  9/ 10 1010.9R
SAND KEY         2250            77     160/ 12/ 13 1011.8F
LONG KEY         2200            76 76  190/  7/  8 1012.4F
MOLASSES REEF    2200            77 76  210/ 10/ 11 1012.7
FOWEY ROCKS      2200            76 76  190/ 17/ 18 1012.7F

$$




USA.gov is the U.S. government's official web portal to all federal, state and local government web resources and services.